User: anonymous   Login
Location: ???????
(55.5931°N, 39.3286°E)
Time: 22:28:04
(UTC+00:00)
Language:

Cosmos 2297 - Orbit

View from above orbital plane
View from above orbital plane
View from above satellite
View from above satellite

Ground track
Ground track

The orbit data is extracted from the following two-line orbital elements,

1 23404U 94077A   24168.93092508  .00000310  00000-0  18874-3 0  9992
2 23404  71.0157 340.3024 0016962 230.3514 129.6112 14.13742049525339
Epoch (UTC): 16 June 2024 22:20:31
Eccentricity: 0.0016962
inclination: 71.0157°
perigee height: 834 km
apogee height: 859 km
right ascension of ascending node: 340.3024°
argument of perigee: 230.3514°
revolutions per day: 14.13742049
mean anomaly at epoch: 129.6112°
orbit number at epoch: 52533

The dashed part of the orbit path shows where the satellite is in the earth's shadow,  

DLR